MDT,Max TemperatureF,Mean TemperatureF,Min TemperatureF,Max Dew PointF,MeanDew PointF,Min DewpointF,Max Humidity, Mean Humidity, Min Humidity, Max Sea Level PressureIn, Mean Sea Level PressureIn, Min Sea Level PressureIn, Max VisibilityMiles, Mean VisibilityMiles, Min VisibilityMiles, Max Wind SpeedMPH, Mean Wind SpeedMPH, Max Gust SpeedMPH,PrecipitationIn, CloudCover, Events, WindDirDegrees
2014-5-1,65,47,29,24,19,14,53,36,18,30.32,30.18,30.04,10,10,10,15,6,20,0.00,0,,25
2014-5-2,75,59,42,32,25,19,49,31,13,30.03,29.89,29.79,10,10,10,23,7,30,0.00,0,,264
2014-5-3,79,67,54,27,18,7,28,19,9,29.91,29.71,29.60,10,10,10,32,10,41,0.00,0,,246
2014-5-4,74,57,40,40,24,16,76,44,11,29.83,29.64,29.55,10,10,4,48,14,67,0.00,0,,273
2014-5-5,74,59,44,33,27,21,49,32,15,29.82,29.66,29.52,10,10,10,25,8,30,0.00,1,,296
2014-5-6,62,50,38,45,39,30,100,73,46,29.78,29.62,29.46,10,8,2,20,8,29,0.18,6,Rain-Thunderstorm,22
2014-5-7,39,36,32,38,34,32,100,96,92,29.93,29.82,29.68,10,4,0,14,5,19,0.53,8,Fog-Rain-Snow,29
2014-5-8,51,42,32,35,32,27,100,75,49,29.96,29.90,29.82,10,7,0,15,5,17,0.04,7,Fog-Snow,40
2014-5-9,62,50,38,39,29,19,79,53,27,29.83,29.71,29.57,10,10,10,31,8,38,T,1,Rain,270
2014-5-10,56,43,30,36,30,21,92,61,30,29.95,29.78,29.64,10,10,5,39,10,48,0.06,3,Rain,347
2014-5-11,36,34,31,33,31,27,100,91,82,30.28,30.10,29.88,10,2,0,15,7,19,0.36,8,Fog-Rain-Snow,335
2014-5-12,41,35,29,33,30,24,100,77,54,30.46,30.33,30.22,10,4,0,17,7,31,0.23,8,Fog-Rain-Snow,293
2014-5-13,55,42,29,30,24,19,69,50,30,30.51,30.43,30.37,10,10,10,15,6,17,0.00,1,,226
2014-5-14,62,46,30,29,26,23,85,54,23,30.42,30.32,30.19,10,10,10,15,4,17,0.00,1,,190
2014-5-15,69,52,34,36,32,27,70,47,23,30.23,30.15,29.99,10,10,10,18,7,22,0.00,1,,227
2014-5-16,63,54,44,45,39,27,80,55,30,30.19,30.03,29.90,10,10,4,28,7,35,0.07,5,Rain-Thunderstorm,292
2014-5-17,70,55,40,46,42,33,100,67,33,29.95,29.85,29.70,10,10,9,17,5,20,0.00,1,,183
2014-5-18,76,60,43,43,31,20,71,43,14,29.70,29.57,29.46,10,10,10,33,10,43,0.00,0,,258
2014-5-19,68,56,44,34,29,23,56,38,19,29.87,29.72,29.57,10,10,10,32,10,40,0.00,2,,272
2014-5-20,66,55,43,44,36,29,77,57,36,30.01,29.89,29.82,10,10,10,22,8,27,0.00,3,,283
2014-5-21,69,58,46,48,45,42,100,70,39,30.12,30.00,29.89,10,9,2,15,7,17,0.02,5,Rain,296
2014-5-22,75,61,47,49,45,38,83,58,33,30.16,30.02,29.92,10,10,9,31,10,38,T,2,Rain-Thunderstorm,311
2014-5-23,73,62,50,48,44,38,83,56,29,30.14,29.97,29.82,10,10,10,25,7,31,0.00,3,Thunderstorm,169
2014-5-24,75,62,48,48,43,35,80,53,25,30.04,29.86,29.77,10,10,10,37,9,44,0.01,2,Rain-Thunderstorm,285
2014-5-25,75,60,45,48,44,39,92,63,33,30.10,29.91,29.83,10,10,10,20,6,24,0.00,1,,144
2014-5-26,82,66,49,50,41,28,77,46,15,30.00,29.86,29.78,10,10,10,20,7,23,0.00,0,,279
2014-5-27,86,68,50,43,32,19,59,35,10,30.02,29.88,29.78,10,10,10,22,8,31,0.00,0,,248
2014-5-28,87,69,51,40,34,23,43,29,15,29.97,29.85,29.71,10,10,8,46,13,60,T,0,Thunderstorm,234
2014-5-29,85,71,57,47,35,29,52,34,15,30.00,29.80,29.68,10,10,10,30,11,37,0.00,1,Thunderstorm,234
2014-5-30,65,58,50,52,47,44,83,68,52,30.17,29.98,29.91,10,10,8,31,9,38,0.01,1,Rain-Thunderstorm,259
2014-5-31,85,67,49,46,39,18,86,48,9,30.05,29.82,29.62,10,10,10,29,10,39,0.00,1,,290